Location: Maccacari
(45.1333°N, 11.1333°E)
Time: 10:27:50
(UTC+00:00)

Vanguard 1 - Visible Passes

Search period start: 24 January 2021 00:00
Search period end: 03 February 2021 00:00
Orbit: 648 x 3834 km, 34.3° (Epoch: 23 January)

Date Brightness Start Highest point End Pass type
(mag) Time Alt. Az. Time Alt. Az. Time Alt. Az.
24 Jan 13.5 16:57:44 10° W 17:19:30 49° SSW 17:36:17 10° SE visible
24 Jan 13.6 19:26:45 10° W 19:41:13 23° SW 19:52:17 10° S visible
25 Jan 13.6 17:19:12 10° W 17:40:10 44° SSW 17:56:23 10° SSE visible
25 Jan 13.8 19:50:11 10° W 20:01:10 17° SW 20:10:10 10° SSW visible
26 Jan 13.7 17:40:51 10° W 18:00:40 38° SW 18:16:11 10° SSE visible
26 Jan 14.0 20:16:29 10° WSW 20:21:01 11° WSW 20:25:11 10° SW visible
27 Jan 13.8 18:02:46 10° W 18:21:01 31° SW 18:35:36 10° S visible
28 Jan 13.9 18:25:07 10° W 18:41:13 25° SW 18:54:28 10° S visible
29 Jan 13.9 16:18:39 10° W 16:39:19 45° SSW 16:57:49 10° SSE visible
29 Jan 14.1 18:48:17 10° W 19:01:17 19° SW 19:12:26 10° SSW visible
30 Jan 14.0 16:40:11 10° W 16:59:57 38° SW 17:17:38 10° SSE visible
30 Jan 14.3 19:13:28 10° WSW 19:21:15 13° WSW 19:28:23 10° SW visible
31 Jan 14.0 17:02:00 10° W 17:20:25 32° SW 17:37:02 10° SSE visible
01 Feb 14.2 17:24:13 10° W 17:40:46 26° SW 17:55:52 10° S visible
02 Feb 14.3 17:47:14 10° W 18:01:00 20° SW 18:13:48 10° SSW visible
